Location: Robert Brownlee Observatory
(34.2308°N, 117.2089°W)
Time: 08:41:45
(UTC-07:00)

Cosmos 1943 - Visible Passes

Search period start: 22 August 2014 00:00
Search period end: 01 September 2014 00:00
Orbit: 834 x 851 km, 71.0° (Epoch: 21 August)

Date Brightness Start Highest point End Pass type
(mag) Time Alt. Az. Time Alt. Az. Time Alt. Az.
22 Aug 3.2 20:17:51 10° NNW 20:23:27 65° ENE 20:28:50 11° SSE visible
22 Aug 5.7 22:04:16 10° WNW 22:06:49 13° W 22:09:23 10° SW visible
23 Aug 3.3 20:03:02 10° NNW 20:08:37 61° ENE 20:14:08 10° SSE visible
23 Aug 5.7 21:49:11 10° WNW 21:52:02 14° W 21:54:52 10° SW visible
24 Aug 3.3 19:48:14 10° NNW 19:53:47 58° ENE 19:59:16 10° SE visible
24 Aug 5.7 21:34:09 10° WNW 21:37:14 15° W 21:40:18 10° SW visible
25 Aug 5.7 21:19:07 10° WNW 21:22:26 16° W 21:25:43 10° SW visible
26 Aug 5.7 21:04:07 10° WNW 21:07:37 17° W 21:11:07 10° SW visible
27 Aug 5.7 20:49:08 10° WNW 20:52:49 18° W 20:56:29 10° SW visible
28 Aug 5.7 20:34:10 10° WNW 20:38:01 19° W 20:41:51 10° SW visible
29 Aug 5.7 20:19:12 10° NW 20:23:12 20° W 20:27:12 10° SSW visible
30 Aug 5.7 20:04:15 10° NW 20:08:24 22° W 20:12:32 10° SSW visible
31 Aug 5.7 19:49:19 10° NW 19:53:35 23° W 19:57:51 10° SSW visible
